Location: Unspecified
(0.0000°N, 0.0000°E)
Time: 17:47:04
(UTC+02:00)

Vanguard 1 - All Passes

Search period start: 17 July 2018 00:00
Search period end: 27 July 2018 00:00
Orbit: 650 x 3832 km, 34.2° (Epoch: 16 July)

Date Brightness Start Highest point End Pass type
(mag) Time Alt. Az. Time Alt. Az. Time Alt. Az.
17 Jul - 07:05:59 10° N 07:12:08 24° NE 07:21:30 10° E visible
17 Jul - 09:23:34 10° NW 09:33:47 89° SW 09:53:10 10° SE daylight
17 Jul - 11:46:26 10° W 12:00:14 39° SSW 12:20:35 10° SE daylight
17 Jul - 14:17:42 10° SW 14:32:42 21° S 14:48:23 10° SSE daylight
17 Jul - 16:52:03 10° SSW 17:07:44 22° S 17:19:52 10° SE daylight
17 Jul - 19:20:04 10° SW 19:37:05 42° SSE 19:46:50 10° E daylight
17 Jul - 21:47:22 10° WSW 22:00:26 64° NW 22:07:22 10° NE visible
18 Jul - 07:25:51 10° NNW 07:32:57 35° NE 07:44:58 10° ESE visible
18 Jul - 09:44:38 10° WNW 09:55:11 70° SW 10:14:51 10° SE daylight
18 Jul - 12:09:03 10° WSW 12:22:53 31° SSW 12:41:59 10° SE daylight
18 Jul - 14:41:54 10° SW 14:56:41 20° S 15:11:19 10° SE daylight
18 Jul - 17:14:03 10° SSW 17:30:58 26° SSE 17:43:13 10° ESE daylight
18 Jul - 19:41:22 10° SW 19:58:56 55° SSE 20:08:26 10° ENE daylight
18 Jul - 22:09:40 10° WSW 22:21:13 43° NW 22:27:46 10° NNE visible
19 Jul - 07:46:07 10° NNW 07:53:43 51° NE 08:07:44 10° ESE daylight
19 Jul - 10:05:59 10° WNW 10:16:54 54° SSW 10:36:18 10° SE daylight
19 Jul - 12:32:11 10° WSW 12:45:54 26° SSW 13:03:38 10° SSE daylight
19 Jul - 15:05:38 10° SW 15:20:45 20° S 15:34:54 10° SE daylight
19 Jul - 17:35:39 10° SW 17:53:49 31° SSE 18:06:08 10° ESE daylight
19 Jul - 20:02:51 10° SW 20:20:30 73° SE 20:29:41 10° ENE daylight
19 Jul - 22:32:32 10° W 22:41:56 28° NW 22:47:51 10° NNE visible
20 Jul - 05:52:00 10° NNE 05:54:03 11° NE 05:56:22 10° ENE visible
20 Jul - 08:06:37 10° NW 08:14:36 72° NE 08:29:59 10° ESE daylight
20 Jul - 10:27:42 10° W 10:38:53 43° SSW 10:57:39 10° SE daylight
20 Jul - 12:55:46 10° WSW 13:09:17 22° SSW 13:25:42 10° SSE daylight
20 Jul - 15:28:40 10° SW 15:44:41 21° S 15:58:51 10° SE daylight
20 Jul - 17:57:03 10° SW 18:16:20 39° SSE 18:28:34 10° E daylight
20 Jul - 20:24:32 10° SW 20:41:47 86° NW 20:50:39 10° NE visible
20 Jul - 22:56:15 10° W 23:02:43 18° NW 23:07:25 10° N visible
21 Jul - 06:10:17 10° N 06:14:56 19° NE 06:21:28 10° E visible
21 Jul - 08:27:25 10° NW 08:35:41 85° SW 08:51:49 10° SE daylight
21 Jul - 10:49:50 10° W 11:01:10 34° SSW 11:18:59 10° SE daylight
21 Jul - 13:19:36 10° SW 13:33:01 20° S 13:48:25 10° SE daylight
21 Jul - 15:50:59 10° SSW 16:08:19 24° SSE 16:22:45 10° ESE daylight
21 Jul - 18:18:23 10° SW 18:38:33 49° SSE 18:50:33 10° E daylight
21 Jul - 20:46:34 10° WSW 21:02:49 64° NW 21:11:21 10° NE visible
21 Jul - 23:22:32 10° NW 23:23:42 10° NW 23:24:48 10° NW visible
22 Jul - 06:30:00 10° NNW 06:35:40 31° NE 06:44:47 10° ESE visible
22 Jul - 08:48:29 10° WNW 08:57:03 63° SSW 09:13:23 10° SE daylight
22 Jul - 11:12:26 10° WSW 11:23:46 28° SSW 11:40:25 10° SSE daylight
22 Jul - 13:43:15 10° SW 13:57:00 20° S 14:11:54 10° SE daylight
22 Jul - 16:12:48 10° SSW 16:31:35 29° SSE 16:46:16 10° ESE daylight
22 Jul - 18:39:46 10° SW 19:00:27 61° SSE 19:12:09 10° ENE daylight
22 Jul - 21:09:03 10° WSW 21:23:42 46° NW 21:31:48 10° NNE visible
23 Jul - 06:50:11 10° NNW 06:56:22 48° NE 07:07:22 10° ESE visible
23 Jul - 09:09:52 10° W 09:18:41 48° SSW 09:34:44 10° SE daylight
23 Jul - 11:35:29 10° WSW 11:46:44 23° SSW 12:02:09 10° SSE daylight
23 Jul - 14:06:25 10° SW 14:21:02 20° S 14:36:04 10° SE daylight
23 Jul - 16:34:17 10° SW 16:54:28 35° SSE 17:09:16 10° E daylight
23 Jul - 19:01:19 10° SW 19:22:04 78° SE 19:33:24 10° ENE daylight
23 Jul - 21:32:05 10° W 21:44:30 32° NW 21:51:58 10° NNE visible
24 Jul - 07:10:42 10° NW 07:17:11 73° NE 07:29:25 10° ESE visible
24 Jul - 09:31:37 10° W 09:40:37 36° SSW 09:55:57 10° SE daylight
24 Jul - 11:58:54 10° SW 12:10:02 20° S 12:24:23 10° SSE daylight
24 Jul - 14:28:55 10° SSW 14:44:54 22° SSE 15:00:31 10° ESE daylight
24 Jul - 16:55:37 10° SW 17:17:01 43° SSE 17:31:45 10° E daylight
24 Jul - 19:23:06 10° SW 19:43:25 84° NW 19:54:22 10° NE daylight
24 Jul - 21:55:54 10° W 22:05:23 22° NW 22:11:47 10° N visible
25 Jul - 05:14:42 10° N 05:18:03 16° NE 05:22:19 10° E visible
25 Jul - 07:31:30 10° WNW 07:38:13 78° SW 07:51:05 10° SE visible
25 Jul - 09:53:47 10° WSW 10:02:50 28° SSW 10:17:09 10° SSE daylight
25 Jul - 12:22:24 10° SW 12:33:40 18° S 12:47:27 10° SE daylight
25 Jul - 14:50:50 10° SSW 15:08:29 26° SSE 15:24:46 10° ESE daylight
25 Jul - 17:16:55 10° SW 17:39:14 53° SSE 17:53:47 10° ENE daylight
25 Jul - 19:45:13 10° WSW 20:04:34 65° NW 20:15:06 10° NE daylight
25 Jul - 22:20:56 10° WNW 22:26:29 14° NW 22:30:49 10° NNW visible
26 Jul - 05:34:11 10° NNW 05:38:47 27° NE 05:45:32 10° E visible
26 Jul - 07:52:37 10° WNW 07:59:32 55° SSW 08:12:27 10° SE daylight
26 Jul - 10:16:26 10° WSW 10:25:21 23° SSW 10:38:28 10° SSE daylight
26 Jul - 12:45:35 10° SSW 12:57:30 18° S 13:11:28 10° SE daylight
26 Jul - 15:12:21 10° SSW 15:31:40 31° SSE 15:48:32 10° E daylight
26 Jul - 17:38:17 10° SW 18:01:10 66° SE 18:15:24 10° ENE daylight
26 Jul - 20:07:48 10° WSW 20:25:34 49° NW 20:35:35 10° NNE visible
